• Join FlightAware (Why Join?)
  • Login
  • US Flag 
Gobble Gobble! 
06:06AM EST


 

Airport Tracker/Info


-or-


 

Live Flight TrackerFlight Track Log ✈ FDX739 ✈ 10-Jul-2013 ✈ KLCK - KCLE

Flight Track Log - Related Links

Times and Time Zones

All times are in EDT time to prevent confusion due to time zone crossing. See the FDX739 flight status page for this flight to view local times or setup timezone preferences in your user account.

Time Position Orientation Groundspeed Altitude Reporting Facility
EDT Latitude Longitude Course Direction KTS MPH feet Rate Location/Type
06:54PM 39.8131 -82.9317 226° Southwest 157 181 1,300  Level Indianapolis Center
06:55PM 39.7986 -82.9511 226° Southwest 152 175 2,500 1,860 Climbing Indianapolis Center
06:56PM 39.7831 -83.0019 248° West 203 234 3,700 3,300 Climbing Indianapolis Center
06:57PM 39.7708 -83.0989 261° West 261 300 8,400 -60 Climbing Indianapolis Center
07:02PM 40.1950 -83.2220 261° West 19,000 -240 Climbing FlightAware
07:03PM 40.2480 -83.1710 36° Northeast 19,000 -840 Level FlightAware
07:04PM 40.3110 -83.1100 36° Northeast 19,000 -900 Level FlightAware
07:04PM 40.3730 -83.0490 37° Northeast 19,000 -900 Level FlightAware
07:05PM 40.4290 -82.9950 36° Northeast 19,000 -960 Level FlightAware
07:06PM 40.4960 -82.9290 37° Northeast 19,000 -960 Level FlightAware
07:06PM 40.5590 -82.8680 36° Northeast 19,000 -1,020 Level FlightAware
07:08PM 40.6810 -82.7480 37° Northeast 14,400 -1,080 Descending FlightAware
07:09PM 40.7570 -82.6730 37° Northeast 11,800 -840 Descending FlightAware
07:11PM 40.9530 -82.4770 37° Northeast 10,100 -660 Descending FlightAware
07:13PM 41.0480 -82.3530 45° Northeast 10,100 -720 Level FlightAware
07:13PM 41.0970 -82.2870 45° Northeast 10,000 -780 Descending FlightAware
07:14PM 41.1240 -82.2520 44° Northeast 9,200 -840 Descending FlightAware
07:14PM 41.1490 -82.2190 45° Northeast 8,500 -840 Descending FlightAware
07:15PM 41.2040 -82.1410 47° Northeast 7,200 -780 Descending FlightAware
07:16PM 41.2170 -82.1020 66° East 7,100 -660 Descending FlightAware
07:16PM 41.2270 -82.0700 67° East 7,100 -720 Level FlightAware
07:17PM 41.2420 -82.0240 67° East 7,100 -720 Level FlightAware
07:17PM 41.2570 -81.9770 67° East 7,100 -780 Level FlightAware
07:17PM 41.2720 -81.9320 66° East 7,100 -900 Level FlightAware
07:18PM 41.2790 -81.9110 66° East 7,100 -960 Level FlightAware
07:18PM 41.2870 -81.8930 59° Northeast 7,100 -1,020 Level FlightAware
07:18PM 41.3080 -81.8570 52° Northeast 7,100 -1,080 Level FlightAware
07:19PM 41.3280 -81.8220 53° Northeast 6,600 -1,200 Descending FlightAware
07:19PM 41.3480 -81.7900 50° Northeast 5,700 -1,260 Descending FlightAware
07:20PM 41.3660 -81.7610 50° Northeast 4,900 -1,080 Descending FlightAware
07:20PM 41.3830 -81.7320 52° Northeast 4,100 -900 Descending FlightAware
07:21PM 41.4040 -81.7000 49° Northeast 3,300 -660 Descending FlightAware
07:21PM 41.4240 -81.6680 50° Northeast 3,100 -180 Descending FlightAware
07:22PM 41.4420 -81.6420 47° Northeast 3,100  Level FlightAware
07:22PM 41.4520 -81.6380 17° North 3,100  Level FlightAware